Weather History for KMBS - September, 2013

Change the Weather History Date:

Tuesday, September 17, 2013

  Actual Average Record
Temperature  
Mean Temperature 53 °F 61 °F  
Max Temperature 69 °F 72 °F - ()
Min Temperature 37 °F 50 °F - ()
Degree Days  
Heating Degree Days 12    
Month to date heating degree days 69  
Since 1 July heating degree days 90  
Cooling Degree Days 0    
Month to date cooling degree days 43  
Year to date cooling degree days 650  
Growing Degree Days 3 (Base 50)    
Moisture  
Dew Point 42 °F    
Average Humidity 66    
Maximum Humidity 92    
Minimum Humidity 40    
Precipitation  
Precipitation 0.00 in 0.14 in - ()
Month to date precipitation 0.18 2.19  
Year to date precipitation 25.06 22.71  
Snow  
Snow 0.00 in - - ()
Month to date snowfall 0.0  
Since 1 July snowfall 0.0  
Since 1 September snowfall 0.0  
Snow Depth 0.00 in    
Sea Level Pressure  
Sea Level Pressure 30.36 in    
Wind  
Wind Speed 5 mph (SE)    
Max Wind Speed 12 mph    
Max Gust Speed 16 mph    
Visibility 10 miles    
Events      
T = Trace of Precipitation, MM = Missing Value Source: NWS Daily Summary

Daily Weather History Graph

Daily Weather History Graph

Search for Another Location

Airport or City:

Trip Planner

Search our weather history database for the weather conditions in past years. The results will help you decide how hot, cold, wet, or windy it might be!

Date:

Astronomy

Sep. 17, 2013 Rise Set
Actual Time 7:18 AM EDT 7:42 PM EDT
Civil Twilight 6:49 AM EDT 8:11 PM EDT
Nautical Twilight 6:15 AM EDT 8:44 PM EDT
Astronomical Twilight 5:40 AM EDT 9:19 PM EDT
Moon 6:30 PM EDT (9/17) 5:09 AM EDT (9/17)
Length of Visible Light 13h 21m
Length of Day
12h 24m
Waxing Gibbous, 96% of the Moon is Illuminated
Sep 17
Waxing Gibbous
Sep 19
Full
Sep 26
Last Quarter
Oct 4
New
Oct 11
First Quarter

Hourly Weather History & Observations

Time (EDT) Temp. Windchill Dew Point Humidity Pressure Visibility Wind Dir Wind Speed Gust Speed Precip Events Conditions
12:53 AM 44.1 °F - 37.9 °F 79% 30.43 in 10.0 mi Calm Calm - N/A   Clear
1:53 AM 39.9 °F 36.7 °F 37.0 °F 89% 30.43 in 10.0 mi East 4.6 mph - N/A   Clear
2:53 AM 39.9 °F - 36.0 °F 86% 30.43 in 10.0 mi Calm Calm - N/A   Clear
3:53 AM 41.0 °F - 37.9 °F 89% 30.43 in 10.0 mi Calm Calm - N/A   Clear
4:53 AM 39.0 °F 36.8 °F 36.0 °F 89% 30.43 in 10.0 mi North 3.5 mph - N/A   Clear
5:53 AM 37.9 °F - 35.1 °F 89% 30.44 in 10.0 mi Calm Calm - N/A   Clear
6:53 AM 37.9 °F - 35.1 °F 89% 30.44 in 10.0 mi Calm Calm - N/A   Clear
7:53 AM 37.0 °F - 35.1 °F 93% 30.45 in 10.0 mi Calm Calm - N/A   Clear
8:53 AM 46.0 °F 44.8 °F 41.0 °F 83% 30.45 in 10.0 mi NE 3.5 mph - N/A   Clear
9:53 AM 51.1 °F - 44.1 °F 77% 30.45 in 10.0 mi Calm Calm - N/A   Clear
10:53 AM 55.9 °F - 43.0 °F 62% 30.44 in 10.0 mi ESE 5.8 mph - N/A   Clear
11:53 AM 59.0 °F - 43.0 °F 55% 30.42 in 10.0 mi South 5.8 mph - N/A   Clear
12:53 PM 62.1 °F - 45.0 °F 53% 30.40 in 10.0 mi SSW 9.2 mph - N/A   Clear
1:53 PM 63.0 °F - 45.0 °F 52% 30.37 in 10.0 mi SE 4.6 mph - N/A   Clear
2:53 PM 66.9 °F - 46.0 °F 47% 30.33 in 10.0 mi ESE 8.1 mph - N/A   Clear
3:53 PM 69.1 °F - 45.0 °F 42% 30.31 in 10.0 mi Variable 6.9 mph - N/A   Clear
4:53 PM 69.1 °F - 46.9 °F 45% 30.29 in 10.0 mi South 9.2 mph - N/A   Clear
5:53 PM 68.0 °F - 45.0 °F 43% 30.28 in 10.0 mi SSE 12.7 mph - N/A   Clear
6:53 PM 66.0 °F - 46.0 °F 48% 30.27 in 10.0 mi SSE 6.9 mph - N/A   Clear
7:53 PM 61.0 °F - 46.9 °F 60% 30.25 in 10.0 mi SE 3.5 mph - N/A   Clear
8:53 PM 57.0 °F - 44.1 °F 62% 30.26 in 10.0 mi SSE 5.8 mph - N/A   Clear
9:53 PM 55.9 °F - 42.1 °F 60% 30.25 in 10.0 mi SSE 5.8 mph - N/A   Clear
10:53 PM 55.0 °F - 42.1 °F 62% 30.25 in 10.0 mi SSE 6.9 mph - N/A   Clear
11:53 PM 53.1 °F - 42.1 °F 66% 30.25 in 10.0 mi South 8.1 mph - N/A   Clear